Terminal Aerodrome Forecast
Issued by NWS

Home | Current Version | Previous Version | Text Only | Print | Product List | Glossary On
Versions: 1 2 3 4 5 6 7 8 9 10 11 12 13 14 15 16 17 18 19
000
FTUS44 KTSA 231700
TAFMLC
TAF
KMLC 231720Z 2318/2418 17005KT P6SM BKN060
      TEMPO 2318/2320 5SM -SHRA BR
     FM240000 17003KT P6SM SCT050
     FM240800 18003KT 5SM BR SCT050
     FM241400 19007KT P6SM SKC=

USA.gov is the U.S. government's official web portal to all federal, state and local government web resources and services.